Location: Muenchen
(48.1800°N, 11.5800°E)
Time: 09:52:55
(UTC+02:00)

Tiros 1 - Visible Passes

Search period start: 22 August 2014 00:00
Search period end: 01 September 2014 00:00
Orbit: 633 x 667 km, 48.4° (Epoch: 21 August)

Date Brightness Start Highest point End Pass type
(mag) Time Alt. Az. Time Alt. Az. Time Alt. Az.
22 Aug 7.4 03:02:11 61° E 03:02:11 61° E 03:06:03 10° E visible
22 Aug 7.3 04:39:57 16° W 04:43:31 49° SSW 04:47:59 10° SE visible
23 Aug 7.0 03:28:55 70° SSE 03:28:55 70° SSE 03:33:11 10° ESE visible
23 Aug 8.0 05:06:43 11° W 05:10:25 29° SW 05:14:23 10° SSE visible
24 Aug 7.3 03:56:07 48° S 03:56:07 48° S 04:00:06 10° SE visible
24 Aug 8.7 05:34:28 10° WSW 05:37:08 15° SW 05:39:48 10° S visible
24 Aug 8.9 21:31:46 10° S 21:33:10 14° SSE 21:33:10 14° SSE visible
25 Aug 8.3 04:23:52 25° S 04:23:52 25° S 04:26:33 10° SSE visible
25 Aug 8.0 21:57:14 10° SSW 22:00:50 29° SSE 22:00:50 29° SSE visible
25 Aug 9.7 23:38:31 10° WSW 23:38:40 11° WSW 23:38:40 11° WSW visible
26 Aug 8.8 20:43:59 10° S 20:46:44 15° SE 20:49:28 10° ESE visible
26 Aug 7.3 22:23:40 10° SW 22:27:57 49° SSE 22:27:57 49° SSE visible
27 Aug 9.8 00:05:40 10° W 00:05:45 10° W 00:05:45 10° W visible
27 Aug 8.0 21:09:22 10° SSW 21:13:27 29° SE 21:16:51 13° E visible
27 Aug 7.3 22:50:35 10° WSW 22:54:37 61° SW 22:54:37 61° SW visible
28 Aug 7.4 21:35:46 10° SW 21:40:21 49° SSE 21:43:12 21° E visible
28 Aug 8.0 23:17:44 10° W 23:20:57 43° W 23:20:57 43° W visible
29 Aug 7.0 22:02:39 10° WSW 22:07:25 73° SSE 22:09:19 35° E visible
29 Aug 8.9 23:44:58 10° W 23:47:04 26° W 23:47:04 26° W visible
30 Aug 7.5 20:47:51 10° SW 20:52:26 47° SSE 20:56:59 10° E visible
30 Aug 7.0 22:29:48 10° W 22:34:35 90° N 22:35:18 65° E visible
31 Aug 9.6 00:12:10 10° W 00:13:01 15° W 00:13:01 15° W visible
31 Aug 7.1 21:14:44 10° WSW 21:19:29 72° SSE 21:23:26 15° E visible
31 Aug 7.4 22:57:01 10° W 23:01:10 67° W 23:01:10 67° W visible
